Wind_Speed
21 20 19 18 16 15 15 14 14 13 11 9 9 10 10 11 12 13 10 9 7 4 2 1 3 4 4 5 6 7 6 6 5 4 4 5 5 7 10 13 13 12 13 13 14
18 19 17 15 13 15 15 14 13 12 12 10 11 12 12 14 14 12 10 9 6 4 3 3 5 6 6 7 7 8 8 9 7 6 6 8 11 12 13 16 16 19 20 18 19
20 19 14 14 14 15 14 13 13 13 12 11 12 14 13 15 14 12 10 7 6 5 5 6 7 7 8 8 8 9 9 10 11 10 10 11 12 12 15 18 19 24 28 27 24
22 22 19 13 13 14 13 13 13 12 11 13 14 14 14 16 15 12 10 8 7 6 7 9 8 8 10 10 10 9 10 12 14 14 14 15 17 18 21 18 21 24 27 32 35
25 24 13 13 12 11 12 12 12 11 12 13 14 15 14 16 14 13 11 9 8 8 9 10 10 10 11 12 12 12 13 16 17 17 16 15 19 17 22 23 26 29 34 37 39
26 24 16 15 15 14 14 13 11 11 12 14 15 15 15 16 15 13 12 12 11 11 11 12 13 13 13 12 13 14 15 17 16 15 14 15 23 22 27 28 32 36 41 46 50
26 28 24 21 20 14 15 14 12 12 13 14 14 15 16 15 14 13 13 12 11 11 13 14 15 14 13 12 14 15 17 18 18 15 15 18 23 27 31 37 43 48 53 57 59
25 31 27 24 23 19 17 16 14 13 13 14 14 14 15 14 13 12 12 12 12 13 13 13 13 13 12 13 15 15 16 17 16 14 17 20 27 32 38 46 52 56 61 54 44
30 31 33 31 22 23 21 19 17 15 14 14 14 15 15 15 14 15 14 13 13 13 13 13 13 13 14 15 16 17 17 16 16 18 22 26 32 38 43 50 54 56 43 35 36
27 31 33 30 27 25 26 23 21 20 19 19 19 18 18 18 19 19 18 17 15 14 13 14 14 14 16 17 17 16 15 16 17 20 25 30 36 41 49 49 54 39 36 36 36
28 29 26 27 37 33 31 27 23 23 22 21 20 20 20 21 21 23 22 21 18 15 15 15 15 14 16 18 18 16 15 16 19 21 25 30 38 45 50 53 42 35 37 35 38
32 30 27 27 35 31 29 29 27 25 23 21 20 20 19 20 19 21 22 22 20 17 16 15 14 15 17 17 17 17 17 20 22 25 28 33 41 48 50 48 37 37 39 39 39
35 32 31 27 29 30 33 28 29 28 28 26 24 23 22 21 21 21 22 21 20 18 16 15 14 16 16 16 17 18 19 22 23 26 31 35 41 47 47 41 36 41 40 38 37
33 31 32 31 30 31 34 28 30 32 30 27 27 24 23 23 22 21 21 21 20 19 16 15 15 15 16 16 18 20 22 23 26 29 32 38 44 48 42 36 36 38 36 37 39
36 36 37 33 31 30 35 32 34 34 30 26 25 24 22 21 21 20 20 21 21 20 17 15 15 15 17 18 20 21 22 24 27 31 34 41 46 42 38 34 33 31 35 35 39
37 32 29 31 30 29 34 35 35 33 33 25 23 23 21 21 20 21 21 21 20 20 18 16 16 17 18 19 21 22 25 27 28 32 36 43 47 42 37 35 33 31 32 36 40
35 37 33 26 34 33 32 30 35 33 30 28 27 27 24 23 22 21 21 23 22 20 18 17 16 18 19 19 21 23 26 28 30 33 39 46 52 35 32 32 33 32 34 40 46
35 37 31 32 28 32 38 37 38 33 26 24 23 25 28 27 24 22 22 23 22 20 19 17 17 18 18 19 22 23 26 27 32 36 40 49 47 29 26 31 32 31 39 44 44
40 38 45 27 30 28 28 34 36 33 28 25 27 26 25 26 25 22 21 24 23 22 21 19 18 18 19 19 23 25 26 28 32 37 45 41 25 23 32 33 31 36 40 42 44
46 42 41 44 40 28 33 34 34 39 40 36 30 28 25 27 25 23 22 21 23 23 23 22 21 19 20 20 22 24 25 29 32 38 41 25 27 29 30 33 32 35 39 39 44
51 50 47 43 46 41 34 36 33 34 34 37 33 30 31 29 28 28 25 24 24 26 26 25 23 21 21 20 22 23 24 28 31 33 30 31 27 28 30 35 35 37 39 39 42
57 56 51 49 47 46 33 34 33 35 32 37 36 30 30 32 32 31 29 29 26 27 27 26 24 22 21 20 22 22 25 26 30 32 25 30 27 28 32 33 37 37 37 39 40
62 61 57 54 50 45 42 36 31 33 37 31 28 30 27 30 32 31 30 28 28 27 27 26 24 23 21 22 22 19 24 25 28 30 24 29 27 29 30 33 36 35 35 37 40
65 66 65 61 56 50 45 40 33 31 32 35 35 29 28 32 33 33 28 29 28 28 28 28 25 23 22 22 21 18 24 24 26 31 24 26 27 29 30 32 33 32 35 38 42
70 69 67 66 61 55 50 48 41 37 37 34 37 35 28 26 31 31 30 30 29 29 30 30 26 24 23 24 22 17 24 24 24 31 22 24 28 31 30 30 35 36 36 40 40
74 72 71 68 64 62 57 52 46 42 39 33 35 36 32 27 26 29 32 30 29 26 29 30 26 26 22 24 23 16 23 24 22 30 21 24 26 31 30 31 34 37 38 38 39
76 74 75 71 68 65 60 54 48 44 44 44 42 41 36 33 21 28 30 31 29 27 29 29 29 30 24 24 22 17 21 22 20 29 24 24 28 28 30 33 34 35 35 37 38
Wind_Direction
283 282 282 282 283 279 276 280 278 275 273 246 231 225 208 192 180 172 171 161 172 179 183 337 343 356 356 1 359 360 2 356 6 8 347 328 305 289 291 293 292 297 292 287 278
273 272 272 277 281 278 278 274 272 269 264 241 229 218 203 190 181 178 178 173 188 216 256 294 308 320 339 340 344 347 348 336 329 315 298 286 281 278 279 278 288 291 290 280 273
269 265 263 266 276 278 273 272 269 260 248 236 229 218 204 196 192 190 190 191 219 242 266 282 290 305 314 318 323 330 335 332 326 317 306 299 292 291 287 291 301 298 300 296 287
271 271 254 263 267 269 275 272 265 253 241 232 228 221 211 205 201 203 207 210 235 258 284 292 296 301 308 311 309 313 315 320 322 316 315 313 313 314 306 311 306 301 298 298 297
273 277 237 254 259 271 276 267 259 247 236 232 228 223 213 208 207 211 224 234 246 262 277 288 294 300 303 309 308 306 306 310 318 317 320 318 308 315 312 313 305 299 293 288 284
268 270 234 238 248 254 262 259 251 243 237 234 229 224 217 213 213 216 230 245 253 265 280 290 295 298 299 298 296 297 303 309 311 314 325 321 308 316 308 302 295 290 285 284 283
265 268 257 235 236 238 247 246 244 240 238 238 233 227 224 220 222 227 235 244 256 270 283 289 288 288 289 291 290 299 309 313 314 323 312 309 303 305 304 303 301 296 293 291 286
270 266 249 243 244 226 239 240 238 237 235 235 231 227 229 234 235 240 244 256 267 274 278 278 277 277 281 284 291 300 304 303 305 303 300 300 304 306 304 305 305 306 300 296 293
267 270 269 248 229 234 222 235 235 233 231 234 234 235 233 239 242 250 257 261 265 267 269 270 272 274 278 283 296 306 305 301 306 306 307 308 310 309 309 309 310 309 302 301 299
268 264 272 257 222 229 223 227 236 237 240 243 245 249 250 254 259 263 260 262 263 263 262 263 266 272 279 291 299 297 295 297 301 306 310 312 312 309 312 316 314 309 305 298 294
265 268 269 266 239 221 222 223 228 238 245 246 249 251 256 261 261 262 261 259 256 257 256 260 265 277 289 299 297 294 293 296 301 305 313 312 313 314 319 322 312 303 305 301 294
262 264 265 263 238 232 226 225 228 232 241 246 247 250 255 260 263 262 258 256 252 249 255 260 273 284 292 292 295 297 303 302 308 308 310 316 317 322 323 317 307 307 308 305 300
261 261 262 265 268 241 231 228 238 237 241 242 246 251 257 260 257 259 258 254 248 247 251 261 275 286 286 290 298 303 302 302 307 310 313 315 318 325 323 310 305 309 313 312 308
261 257 260 259 262 252 235 233 239 243 245 248 246 248 255 259 254 252 254 251 246 249 250 260 276 287 289 296 302 303 301 301 305 308 315 316 318 328 317 302 307 311 312 311 315
250 263 256 253 256 257 245 234 240 245 249 250 251 247 247 252 249 244 243 244 246 247 253 261 275 285 292 299 304 303 299 300 308 313 317 320 323 324 308 302 312 315 318 316 318
238 235 243 245 253 252 247 249 249 247 249 250 247 240 238 244 243 240 238 241 243 250 255 261 273 286 293 298 304 305 304 306 310 314 321 324 326 321 304 310 320 321 318 323 321
252 244 243 242 254 250 251 246 253 252 251 251 247 245 234 234 240 242 240 244 243 247 254 261 275 286 291 297 305 306 306 307 310 319 325 323 325 313 306 318 318 323 329 331 334
262 261 230 229 235 245 244 246 246 243 240 239 250 245 238 235 239 243 244 245 248 250 254 260 276 288 288 298 305 307 307 315 320 324 325 327 323 317 323 323 326 331 338 337 335
259 259 253 254 236 220 224 238 247 242 228 234 239 245 239 235 235 243 245 250 254 255 258 263 272 287 294 303 308 308 310 315 322 326 329 334 332 341 334 330 330 340 339 338 337
258 257 256 256 261 244 236 235 240 241 244 236 233 238 238 243 241 242 245 252 255 258 260 262 266 281 294 302 305 308 310 318 326 333 333 351 339 343 340 336 339 344 342 341 342
255 255 253 253 259 267 242 235 236 229 235 230 230 230 236 244 242 246 250 257 261 262 262 265 269 280 291 299 305 305 308 320 328 336 328 337 340 343 339 334 342 347 344 345 348
253 252 251 251 251 259 244 235 232 226 227 227 230 232 238 239 242 245 252 257 261 262 264 266 270 278 289 295 302 304 308 322 332 332 324 331 344 340 339 338 342 346 343 345 345
248 250 249 248 247 249 258 245 240 233 227 220 228 233 239 238 243 246 249 254 257 261 264 266 268 275 283 288 295 297 307 321 329 326 323 328 342 339 337 339 341 341 339 342 346
245 245 247 247 246 245 245 252 247 245 238 233 229 233 235 240 245 246 246 248 253 260 265 268 269 270 276 285 294 297 306 318 328 324 322 327 339 340 333 335 337 338 340 345 351
243 244 245 246 245 245 242 241 242 246 240 240 231 238 241 239 239 242 243 245 249 258 263 266 265 263 271 282 290 293 301 313 325 321 317 324 333 341 332 334 338 340 342 348 350
243 242 242 242 242 242 239 237 236 237 245 247 241 238 238 237 232 238 242 243 249 252 259 262 265 258 263 275 283 288 298 309 319 321 319 321 328 333 337 337 339 340 341 344 348
241 240 241 239 240 239 239 238 237 235 236 241 244 245 239 230 234 237 241 244 246 249 255 261 263 262 263 269 276 280 288 302 318 321 318 319 327 331 332 333 336 337 337 341 345
Height
5771 5771 5770 5770 5768 5767 5767 5766 5765 5764 5764 5765 5765 5767 5766 5767 5769 5769 5771 5772 5773 5773 5773 5772 5772 5772 5771 5770 5769 5768 5768 5766 5765 5764 5763 5762 5762 5762 5761 5761 5760 5760 5759 5759 5758
5766 5766 5766 5766 5764 5764 5764 5762 5762 5761 5761 5762 5763 5764 5764 5765 5767 5768 5769 5769 5770 5771 5770 5770 5770 5770 5770 5769 5768 5767 5766 5765 5764 5763 5762 5762 5762 5761 5760 5757 5756 5754 5753 5753 5753
5761 5762 5762 5761 5761 5761 5760 5759 5758 5758 5758 5759 5760 5762 5762 5763 5765 5766 5766 5766 5768 5768 5768 5768 5767 5767 5767 5766 5766 5765 5764 5763 5761 5760 5759 5758 5757 5756 5754 5753 5752 5749 5746 5746 5747
5757 5758 5758 5758 5758 5757 5757 5755 5755 5755 5755 5757 5757 5759 5760 5761 5764 5763 5764 5764 5765 5765 5766 5765 5764 5764 5763 5763 5763 5762 5761 5760 5758 5756 5755 5754 5751 5750 5747 5749 5747 5745 5742 5738 5736
5753 5753 5752 5754 5754 5754 5753 5752 5752 5752 5753 5754 5755 5756 5757 5759 5760 5760 5761 5762 5762 5762 5762 5762 5761 5760 5760 5760 5759 5758 5758 5756 5754 5752 5750 5749 5746 5746 5743 5742 5740 5738 5735 5732 5730
5748 5748 5748 5749 5750 5750 5750 5749 5750 5750 5750 5751 5751 5752 5754 5756 5756 5757 5757 5758 5758 5758 5758 5758 5757 5756 5756 5755 5755 5753 5751 5750 5748 5747 5746 5744 5740 5740 5738 5736 5733 5730 5726 5722 5718
5743 5743 5743 5743 5745 5746 5746 5746 5746 5747 5747 5748 5748 5749 5751 5752 5752 5753 5754 5754 5754 5754 5754 5754 5753 5753 5752 5751 5750 5748 5747 5744 5743 5742 5741 5739 5736 5734 5731 5727 5723 5719 5714 5707 5703
5737 5738 5737 5738 5739 5740 5741 5743 5743 5743 5744 5745 5745 5746 5747 5748 5749 5750 5750 5750 5750 5750 5750 5749 5749 5748 5747 5746 5745 5744 5742 5739 5737 5737 5735 5733 5728 5725 5722 5717 5711 5705 5698 5691 5684
5731 5731 5731 5730 5733 5734 5736 5738 5738 5739 5740 5741 5742 5743 5744 5744 5745 5745 5746 5746 5746 5745 5744 5744 5744 5743 5742 5741 5740 5738 5736 5734 5732 5730 5728 5724 5719 5715 5712 5707 5700 5689 5681 5677 5673
5723 5724 5723 5725 5725 5728 5730 5731 5733 5734 5736 5737 5738 5740 5740 5740 5740 5741 5741 5741 5741 5740 5739 5739 5739 5738 5737 5735 5735 5733 5731 5728 5727 5724 5720 5715 5712 5708 5703 5697 5687 5679 5672 5667 5663
5717 5717 5718 5718 5717 5718 5722 5725 5728 5730 5731 5732 5733 5733 5734 5735 5735 5735 5736 5735 5735 5734 5734 5734 5734 5733 5731 5730 5729 5727 5726 5723 5720 5718 5715 5710 5704 5700 5692 5684 5676 5670 5665 5660 5655
5709 5710 5710 5711 5712 5713 5716 5717 5720 5723 5725 5726 5727 5728 5728 5729 5729 5729 5730 5731 5730 5730 5730 5731 5729 5729 5727 5726 5725 5723 5721 5719 5716 5712 5709 5704 5697 5692 5684 5674 5668 5662 5657 5650 5644
5699 5701 5703 5704 5706 5706 5708 5711 5713 5715 5718 5720 5720 5722 5723 5723 5723 5723 5724 5724 5725 5724 5724 5725 5725 5724 5723 5721 5719 5717 5715 5713 5711 5707 5701 5698 5692 5685 5676 5666 5659 5653 5646 5639 5634
5691 5693 5695 5697 5700 5700 5702 5704 5706 5708 5711 5713 5713 5715 5716 5716 5717 5717 5718 5720 5720 5720 5720 5720 5719 5719 5718 5715 5713 5710 5709 5707 5703 5700 5695 5688 5684 5674 5666 5659 5651 5643 5637 5631 5623
5684 5685 5686 5688 5690 5693 5696 5696 5699 5701 5703 5707 5707 5708 5708 5710 5710 5710 5711 5713 5714 5715 5716 5715 5714 5714 5712 5710 5707 5705 5702 5700 5696 5692 5688 5680 5673 5664 5657 5651 5643 5635 5630 5623 5617
5676 5677 5676 5680 5682 5685 5688 5689 5692 5696 5695 5698 5699 5700 5702 5703 5704 5705 5706 5708 5709 5709 5709 5709 5708 5707 5706 5704 5701 5698 5695 5693 5690 5685 5681 5672 5663 5657 5647 5642 5634 5628 5624 5616 5609
5667 5669 5670 5673 5675 5676 5679 5682 5685 5685 5690 5692 5693 5694 5695 5697 5698 5699 5700 5702 5703 5704 5703 5703 5702 5701 5700 5697 5695 5692 5690 5687 5685 5678 5673 5665 5657 5646 5639 5636 5628 5622 5616 5607 5596
5657 5659 5661 5664 5665 5665 5668 5673 5675 5678 5681 5683 5685 5686 5688 5690 5692 5693 5694 5696 5697 5697 5697 5697 5698 5695 5694 5691 5689 5686 5684 5682 5677 5672 5667 5658 5644 5637 5635 5629 5623 5617 5606 5597 5589
5646 5649 5650 5652 5655 5657 5658 5660 5665 5669 5672 5675 5678 5679 5681 5683 5686 5687 5688 5690 5691 5691 5692 5691 5691 5689 5687 5685 5683 5681 5678 5676 5670 5665 5658 5650 5640 5634 5628 5622 5617 5608 5600 5591 5582
5634 5637 5640 5642 5643 5645 5647 5651 5656 5660 5664 5667 5670 5672 5674 5676 5679 5680 5682 5684 5684 5685 5684 5685 5685 5683 5681 5679 5677 5675 5674 5670 5664 5656 5650 5645 5635 5628 5624 5617 5611 5603 5594 5585 5575
5620 5622 5628 5631 5633 5635 5638 5644 5647 5651 5654 5657 5660 5663 5667 5669 5671 5673 5676 5677 5678 5679 5678 5678 5678 5678 5675 5673 5672 5670 5668 5664 5659 5651 5644 5637 5631 5623 5619 5613 5606 5597 5588 5579 5569
5604 5607 5615 5618 5623 5626 5630 5636 5639 5641 5644 5648 5651 5655 5658 5660 5662 5664 5668 5669 5671 5671 5672 5671 5671 5670 5669 5667 5666 5664 5661 5657 5652 5647 5640 5633 5627 5618 5613 5608 5600 5592 5584 5575 5566
5585 5592 5597 5604 5609 5616 5622 5625 5628 5632 5634 5639 5642 5646 5649 5652 5654 5656 5659 5662 5662 5663 5663 5664 5664 5663 5663 5663 5661 5659 5655 5652 5647 5641 5636 5626 5624 5615 5609 5605 5596 5589 5582 5572 5561
5566 5573 5581 5588 5598 5605 5611 5616 5619 5623 5625 5629 5633 5637 5640 5642 5645 5648 5651 5652 5654 5655 5655 5655 5657 5656 5656 5654 5654 5653 5648 5646 5641 5635 5631 5624 5619 5613 5606 5601 5594 5586 5577 5568 5556
5545 5555 5565 5573 5584 5591 5598 5604 5610 5615 5616 5620 5624 5628 5631 5633 5635 5639 5642 5644 5645 5646 5647 5647 5649 5650 5649 5647 5647 5646 5642 5639 5636 5630 5625 5620 5614 5608 5602 5597 5590 5582 5573 5563 5554
5527 5539 5547 5557 5566 5573 5581 5591 5598 5604 5608 5612 5616 5616 5621 5626 5628 5630 5633 5636 5637 5640 5640 5640 5641 5641 5643 5641 5639 5640 5636 5634 5630 5624 5619 5614 5611 5603 5597 5591 5585 5578 5569 5561 5552
5507 5519 5527 5537 5545 5555 5568 5579 5587 5593 5598 5602 5606 5608 5613 5616 5619 5622 5624 5628 5631 5632 5632 5633 5633 5633 5637 5635 5634 5634 5632 5628 5625 5618 5613 5609 5606 5601 5594 5588 5581 5574 5567 5559 5550